FALCON 9 R/B, 42819

Orbit data source: Space-Track

FALCON 9 R/B, 42819 is space debris in HEO originally from a launch on Wed, 05 Jul 2017 UTC launched from the Air Force Eastern Test Range (AFETR). Debris objects in space refer to the collection of defunct objects orbiting the Earth. Examples of debris include non-operational satellites, rocket bodies, and fragments generated from explosions, collisions, or faulty payload assembly.

Loading next visibility...
Identifier
42819, 2017-041B
Orbit
HEO
Country
Flag of USUS
Related business
Manufacturer
SpaceX
Mission
Spacecraft
Bus & Motor
F9ST2, Unknown motor
Mass
~4,000 kg wet, ~4,000 kg dry
Launch date (UTC)
2017-07-05 (8 years ago)
Launch vehicle
Unknown
Launch site
Air Force Eastern Test Range (AFETR)
Object type
Payload
Rocket body
Debris
Shape & HBR
Cyl, 7.8 m
Radar Cross Section
39.980 m², Large (>1 m²)

Expand to show TLE details & history
Last TLE update: 1 day ago

TLE from 1 day ago
0 FALCON 9 R/B
1 42819U 17041B   25291.82322232  .00002982  00000-0  46635-2 0  9997
2 42819  25.7949 258.8448 7443715 304.0106   6.1990  2.04082824 58442
Epoch: 2025-10-18T19:45Z
TLE epoch observation values (Epoch: 2025-10-18T19:45:26.408Z)
Latitude
-0.0014°
Longitude
-65.21762°
Altitude
1,854.274 km
Speed
9.036 km/s
True Right ascension
17h 14m 45s
True Declination
0° 00' 05"
Sunlit
Object was in daylight at epoch
Visualization orbit readout
Latitude
Unknown
Longitude
Unknown
Altitude
Unknown
Speed
Unknown
Apparent Right ascension
Unknown
Apparent Declination
Unknown
Sunlit
N/A
Visualization observer readout
Local Sidereal Time
17:08:03
Azimuth
Unknown
Elevation
Unknown
Doppler factor
Unknown
Orbital elements
Apogee altitude
39,425.874 km
Perigee altitude
334.201 km
Semi-major axis
26,258.174 km
Eccentricity
0.74437
Inclination
25.7949°
RAAN
258.8448°
Arg. of periapsis
304.0106°
True anomaly
55.05174°
Mean anomaly
6.199°
Eccentric anomaly
22.56464°
Mean motion
0.51009 °/min
Orbital period
705.76 mins
BSTAR
0.0046635
Loading maneuver chart data...
Computing Atmospheric mass density...
Loading historical data...
Loading historical data...
Loading historical data...
Loading historical data...
Loading historical data...
Loading historical data...
Loading historical data...
Other satellites on launch #41 in the year 2017 (2017-07-05 UTC)

Documentation

Showing up to 5 results
|